Weather History for KJKL - February, 2014

Change the Weather History Date:

Wednesday, February 26, 2014

  Actual Average Record
Temperature  
Mean Temperature 25 °F 42 °F  
Max Temperature 32 °F 51 °F 78 °F (2000)
Min Temperature 18 °F 32 °F 11 °F (1990)
Degree Days  
Heating Degree Days 40 23  
Month to date heating degree days 742 688  
Since 1 July heating degree days 3526 3254  
Cooling Degree Days 0 0  
Month to date cooling degree days 0 0  
Year to date cooling degree days 0 0  
Moisture  
Dew Point 14 °F    
Average Humidity 58    
Maximum Humidity 84    
Minimum Humidity 32    
Precipitation  
Precipitation 0.06 in 0.13 in 0.53 in (2008)
Month to date precipitation 4.47 3.48  
Year to date precipitation 7.62 7.09  
Snow  
Snow 1.10 in 0.10 in 1.10 in (2014)
Month to date snowfall 8.7 6.6  
Since 1 July snowfall 27.0 19.2  
Snow Depth 1.00 in    
Sea Level Pressure  
Sea Level Pressure 30.04 in    
Wind  
Wind Speed 6 mph (WNW)    
Max Wind Speed 13 mph    
Max Gust Speed 18 mph    
Visibility 5 miles    
Events Snow    
T = Trace of Precipitation, MM = Missing Value Source: NWS Daily Summary

Daily Weather History Graph

Daily Weather History Graph

Search for Another Location

Airport or City:

Trip Planner

Search our weather history database for the weather conditions in past years. The results will help you decide how hot, cold, wet, or windy it might be!

Date:

Astronomy

Feb. 26, 2014 Rise Set
Actual Time 7:08 AM EST 6:24 PM EST
Civil Twilight 6:42 AM EST 6:50 PM EST
Nautical Twilight 6:12 AM EST 7:20 PM EST
Astronomical Twilight 5:41 AM EST 7:51 PM EST
Moon 4:51 AM EST (2/26) 3:39 PM EST (2/26)
Length of Visible Light 12h 08m
Length of Day
11h 15m
Waning Crescent, 10% of the Moon is Illuminated
Feb 26
Waning Crescent
Mar 1
New
Mar 8
First Quarter
Mar 16
Full
Mar 23
Last Quarter

Hourly Weather History & Observations

Time (EST) Temp. Windchill Dew Point Humidity Pressure Visibility Wind Dir Wind Speed Gust Speed Precip Events Conditions
12:53 AM 30.0 °F 23.2 °F 16.0 °F 56% 30.04 in 10.0 mi NW 6.9 mph - N/A   Overcast
1:53 AM 28.9 °F 21.9 °F 15.1 °F 56% 30.03 in 10.0 mi NNW 6.9 mph - N/A   Mostly Cloudy
2:53 AM 28.0 °F 20.0 °F 17.1 °F 63% 30.02 in 10.0 mi NNW 8.1 mph - N/A   Overcast
3:53 AM 27.0 °F 18.7 °F 19.0 °F 72% 30.04 in 10.0 mi WNW 8.1 mph - N/A   Overcast
4:13 AM 26.1 °F 18.4 °F 19.9 °F 78% 30.01 in 1.8 mi WNW 6.9 mph - 0.00 in Snow Light Snow
4:21 AM 25.0 °F 16.3 °F 21.0 °F 85% 30.02 in 1.0 mi NW 8.1 mph - 0.00 in Snow Light Snow
4:36 AM 25.0 °F 17.1 °F 19.9 °F 81% 30.01 in 1.2 mi Variable 6.9 mph - 0.01 in Snow Light Snow
4:53 AM 25.0 °F 17.1 °F 19.9 °F 81% 30.04 in 1.2 mi NW 6.9 mph 18.4 mph 0.02 in Snow Light Snow
5:06 AM 25.0 °F 19.3 °F 19.9 °F 81% 30.02 in 1.0 mi NW 4.6 mph - 0.00 in Snow Light Snow
5:11 AM 24.1 °F 16.0 °F 21.0 °F 88% 30.02 in 0.8 mi Variable 6.9 mph - 0.01 in Snow Light Snow
5:21 AM 24.1 °F 14.4 °F 19.9 °F 84% 30.03 in 1.0 mi NW 9.2 mph - 0.01 in Snow Light Snow
5:46 AM 23.0 °F 13.1 °F 18.0 °F 81% 30.05 in 1.8 mi WNW 9.2 mph 18.4 mph 0.02 in Snow Light Snow
5:50 AM 21.2 °F 10.9 °F 17.6 °F 86% 30.05 in 2.0 mi NW 9.2 mph 18.4 mph 0.02 in Snow Light Snow
5:53 AM 21.9 °F 14.5 °F 17.1 °F 82% 30.09 in 2.0 mi Variable 5.8 mph - 0.02 in Snow Light Snow
6:07 AM 21.9 °F 13.4 °F 17.1 °F 82% 30.05 in 2.5 mi NW 6.9 mph - 0.00 in Snow Light Snow
6:15 AM 21.9 °F 13.4 °F 18.0 °F 85% 30.05 in 1.5 mi WNW 6.9 mph - 0.00 in Snow Light Snow
6:26 AM 21.9 °F 13.4 °F 18.0 °F 85% 30.06 in 1.0 mi West 6.9 mph - 0.01 in Snow Light Snow
6:33 AM 21.9 °F 15.7 °F 18.0 °F 85% 30.07 in 2.0 mi Variable 4.6 mph - 0.01 in Snow Light Snow
6:53 AM 21.9 °F 17.2 °F 18.0 °F 85% 30.12 in 1.5 mi West 3.5 mph - 0.01 in Snow Light Snow
7:09 AM 21.0 °F 11.4 °F 18.0 °F 88% 30.07 in 2.0 mi West 8.1 mph - 0.00 in Snow Light Snow
7:22 AM 21.0 °F 12.4 °F 16.0 °F 81% 30.07 in 4.0 mi West 6.9 mph - 0.00 in Snow Light Snow
7:42 AM 21.0 °F 12.4 °F 17.1 °F 85% 30.07 in 5.0 mi West 6.9 mph - 0.00 in Snow Light Snow
7:53 AM 21.0 °F 14.6 °F 17.1 °F 85% 30.12 in 4.0 mi Variable 4.6 mph - 0.00 in Snow Light Snow
8:10 AM 21.0 °F 12.4 °F 16.0 °F 81% 30.07 in 2.5 mi WNW 6.9 mph - 0.00 in Snow Light Snow
8:15 AM 21.0 °F 10.6 °F 16.0 °F 81% 30.08 in 1.5 mi WNW 9.2 mph - 0.00 in Snow Light Snow
8:25 AM 21.0 °F 10.6 °F 16.0 °F 81% 30.07 in 1.8 mi WNW 9.2 mph - 0.00 in Snow Light Snow
8:31 AM 21.9 °F 13.4 °F 16.0 °F 78% 30.07 in 3.0 mi Variable 6.9 mph - 0.00 in Snow Light Snow
8:46 AM 21.0 °F 12.4 °F 15.1 °F 78% 30.07 in 9.0 mi Variable 6.9 mph - 0.01 in   Mostly Cloudy
8:53 AM 21.9 °F 15.7 °F 15.1 °F 75% 30.11 in 10.0 mi NW 4.6 mph - 0.01 in   Mostly Cloudy
9:53 AM 21.9 °F - 15.1 °F 75% 30.11 in 6.0 mi North - - 0.00 in Snow Light Snow
10:53 AM 21.9 °F 14.5 °F 14.0 °F 72% 30.12 in 2.0 mi Variable 5.8 mph - 0.00 in Snow Light Snow
10:59 AM 21.0 °F 14.6 °F 12.9 °F 71% 30.07 in 1.5 mi Variable 4.6 mph - 0.00 in Snow Light Snow
11:45 AM 23.0 °F 15.8 °F 12.9 °F 65% 30.05 in 2.0 mi NW 5.8 mph - 0.00 in Snow Light Snow
11:53 AM 23.0 °F 17.0 °F 12.9 °F 65% 30.09 in 6.0 mi WNW 4.6 mph - 0.00 in Snow Light Snow
12:50 PM 24.8 °F 15.3 °F 10.4 °F 54% 30.02 in 10.0 mi NW 9.2 mph - 0.00 in   Scattered Clouds
12:53 PM 24.1 °F 17.0 °F 10.0 °F 55% 30.06 in 10.0 mi WNW 5.8 mph - 0.00 in   Partly Cloudy
1:53 PM 28.0 °F 20.8 °F 10.0 °F 47% 30.02 in 10.0 mi Variable 6.9 mph - N/A   Clear
2:53 PM 28.0 °F 22.8 °F 8.1 °F 43% 29.99 in 10.0 mi Variable 4.6 mph - N/A   Clear
3:53 PM 30.0 °F 23.2 °F 5.0 °F 35% 29.97 in 10.0 mi Variable 6.9 mph - N/A   Clear
4:53 PM 28.0 °F 20.0 °F 5.0 °F 38% 29.96 in 10.0 mi NW 8.1 mph - N/A   Clear
5:53 PM 27.0 °F 20.5 °F 5.0 °F 39% 29.95 in 10.0 mi West 5.8 mph - N/A   Clear
6:53 PM 24.1 °F 19.7 °F 3.0 °F 40% 29.96 in 10.0 mi Variable 3.5 mph - N/A   Clear
7:53 PM 21.9 °F 14.5 °F 3.0 °F 44% 29.96 in 10.0 mi West 5.8 mph - N/A   Clear
8:53 PM 21.0 °F 12.4 °F 1.9 °F 44% 29.96 in 10.0 mi West 6.9 mph - N/A   Clear
9:53 PM 19.9 °F - 3.0 °F 48% 29.95 in 10.0 mi Calm Calm - N/A   Clear
10:53 PM 18.0 °F 11.1 °F 3.9 °F 54% 29.95 in 10.0 mi SW 4.6 mph - N/A   Clear
11:53 PM 18.0 °F 11.1 °F 5.0 °F 57% 29.94 in 10.0 mi Variable 4.6 mph - N/A   Clear